Parsons, KS

9:55 PM CDT on September 16, 2019 (GMT -0500)
Tri-City

Weather History for KPPF - August, 2019

Change the Weather History Date:

Sunday, August 18, 2019

  Actual Average Record
Temperature  
Mean Temperature 78 °F -  
Max Temperature 89 °F 90 °F 106 °F (1956)
Min Temperature 69 °F 66 °F 56 °F (1992)
Cooling Degree Days 14    
Growing Degree Days 28 (Base 50)    
Moisture  
Dew Point 71 °F    
Average Humidity 87    
Maximum Humidity 100    
Minimum Humidity 59    
Precipitation  
Precipitation 1.04 in - - ()
Sea Level Pressure  
Sea Level Pressure 29.88 in    
Wind  
Wind Speed 9 mph (SW)    
Max Wind Speed 22 mph    
Max Gust Speed 36 mph    
Visibility 8 miles    
Events Fog , Rain , Thunderstorm    
Averages and records for this station are not official NWS values.
T = Trace of Precipitation, MM = Missing Value Source: NWS Daily Summary

Daily Weather History Graph

Daily Weather History Graph

Search for Another Location

Airport or City:

Astronomy

Aug. 18, 2019 Rise Set
Actual Time 6:40 AM CDT 8:10 PM CDT
Civil Twilight 6:13 AM CDT 8:37 PM CDT
Nautical Twilight 5:39 AM CDT 9:11 PM CDT
Astronomical Twilight 5:05 AM CDT 9:45 PM CDT
Moon 10:09 PM CDT (8/18) 9:23 AM CDT (8/18)
Length of Visible Light 14h 24m
Length of Day
13h 29m
Waning Gibbous, 91% of the Moon is Illuminated
Aug 18
Waning Gibbous
Aug 23
Last Quarter
Aug 30
New
Sep 5
First Quarter
Sep 13
Full

Hourly Weather History & Observations

Time (CDT) Temp. Heat Index Dew Point Humidity Pressure Visibility Wind Dir Wind Speed Gust Speed Precip Events Conditions
12:52 AM 81.0 °F 85.2 °F 72.0 °F 74% 29.76 in 10.0 mi South 9.2 mph 17.3 mph N/A   Clear
1:52 AM 81.0 °F 85.2 °F 72.0 °F 74% 29.75 in 10.0 mi South 9.2 mph 20.7 mph N/A   Clear
2:52 AM 80.1 °F 83.8 °F 72.0 °F 76% 29.81 in 10.0 mi SW 8.1 mph - N/A   Mostly Cloudy
3:15 AM 73.9 °F - 66.9 °F 79% 29.90 in 10.0 mi WNW 21.9 mph 35.7 mph N/A   Overcast
3:44 AM 70.0 °F - 69.1 °F 97% 29.93 in 1.5 mi NW 20.7 mph 29.9 mph 0.19 in Rain , Thunderstorm Heavy Thunderstorms and Rain
3:46 AM 69.8 °F - 69.8 °F 100% 29.93 in 1.0 mi WNW 18.4 mph 29.9 mph 0.27 in Rain , Thunderstorm Heavy Thunderstorms and Rain
3:48 AM 69.8 °F - 69.8 °F 100% 29.94 in 0.8 mi WNW 19.6 mph 29.9 mph 0.36 in Rain , Thunderstorm Heavy Thunderstorms and Rain
3:52 AM 69.1 °F - 69.1 °F 100% 29.92 in 0.5 mi WNW 13.8 mph 29.9 mph 0.57 in Fog , Rain , Thunderstorm Heavy Thunderstorms and Rain
4:00 AM 70.0 °F - 69.1 °F 97% 29.93 in 1.0 mi NW 12.7 mph 20.7 mph 0.18 in Rain , Thunderstorm Heavy Thunderstorms and Rain
4:18 AM 70.0 °F - 70.0 °F 100% 29.90 in 1.5 mi Variable 5.8 mph - 0.44 in Rain , Thunderstorm Thunderstorms and Rain
4:21 AM 70.0 °F - 70.0 °F 100% 29.88 in 3.0 mi East 5.8 mph - 0.44 in Rain , Thunderstorm Thunderstorms and Rain
4:29 AM 70.0 °F - 69.1 °F 97% 29.89 in 9.0 mi Variable 3.5 mph - 0.45 in Rain , Thunderstorm Light Thunderstorms and Rain
4:38 AM 70.0 °F - 70.0 °F 100% 29.90 in 10.0 mi Calm Calm - 0.45 in Rain , Thunderstorm Light Rain
4:52 AM 70.0 °F - 69.1 °F 97% 29.89 in 10.0 mi WNW 8.1 mph - 0.45 in   Overcast
5:00 AM 70.0 °F - 69.1 °F 97% 29.91 in 10.0 mi NNW 5.8 mph - N/A   Overcast
5:52 AM 69.1 °F - 69.1 °F 100% 29.84 in 10.0 mi Calm Calm - N/A   Clear
6:52 AM 70.0 °F - 69.1 °F 97% 29.82 in 10.0 mi South 3.5 mph - N/A   Clear
7:52 AM 70.0 °F - 70.0 °F 100% 29.88 in 9.0 mi WNW 4.6 mph - N/A   Clear
8:19 AM 71.1 °F - 70.0 °F 96% 29.94 in 10.0 mi WNW 6.9 mph - N/A   Partly Cloudy
8:52 AM 71.1 °F - 70.0 °F 96% 29.89 in 10.0 mi SE 3.5 mph - N/A   Clear
9:52 AM 72.0 °F - 71.1 °F 97% 29.89 in 10.0 mi South 9.2 mph - 0.00 in Rain Light Rain
10:17 AM 72.0 °F - 71.1 °F 97% 29.92 in 10.0 mi North 5.8 mph - 0.00 in   Scattered Clouds
10:29 AM 72.0 °F - 71.1 °F 97% 29.93 in 10.0 mi Variable 3.5 mph - 0.00 in Rain , Thunderstorm Light Rain
10:50 AM 71.6 °F - 69.8 °F 94% 29.89 in 10.0 mi SSE 9.2 mph - 0.02 in Rain Light Rain
10:52 AM 72.0 °F - 70.0 °F 93% 29.85 in 10.0 mi SSE 9.2 mph - 0.02 in Rain Light Rain
11:52 AM 79.0 °F - 71.1 °F 77% 29.84 in 10.0 mi Variable 5.8 mph - 0.00 in   Clear
12:52 PM 84.0 °F 89.0 °F 71.1 °F 65% 29.84 in 10.0 mi SSW 9.2 mph 18.4 mph N/A   Clear
1:52 PM 84.9 °F 90.1 °F 71.1 °F 63% 29.86 in 10.0 mi SW 5.8 mph - N/A   Clear
2:52 PM 87.1 °F 92.8 °F 71.1 °F 59% 29.86 in 10.0 mi Variable 4.6 mph - N/A   Clear
3:52 PM 88.0 °F 97.5 °F 75.0 °F 65% 29.86 in 10.0 mi Calm Calm - N/A   Clear
4:52 PM 88.0 °F 97.5 °F 75.0 °F 65% 29.85 in 10.0 mi SSE 4.6 mph - N/A   Clear
5:52 PM 87.1 °F 95.4 °F 73.9 °F 65% 29.85 in 10.0 mi SE 4.6 mph - N/A   Clear
6:52 PM 86.0 °F 96.0 °F 75.9 °F 72% 29.85 in 10.0 mi Calm Calm - N/A   Scattered Clouds
7:52 PM 82.0 °F 90.2 °F 77.0 °F 85% 29.85 in 10.0 mi Calm Calm - N/A   Mostly Cloudy
8:52 PM 81.0 °F 87.3 °F 75.9 °F 85% 29.87 in 10.0 mi Calm Calm - N/A   Partly Cloudy
9:52 PM 79.0 °F - 75.9 °F 90% 29.89 in 10.0 mi Calm Calm - N/A   Scattered Clouds
10:52 PM 79.0 °F - 75.9 °F 90% 29.91 in 10.0 mi SE 4.6 mph - N/A   Clear
11:52 PM 79.0 °F - 75.0 °F 88% 29.91 in 10.0 mi SSE 3.5 mph - N/A   Mostly Cloudy